This is the latest recevied weather packets stored in our database for station/object K7DC. If no packets are shown the sender has not sent any weather packets the latest 10 day(s).
| Time | Temp. | Humidity | Pressure | Rain* | Wind** | Luminosity | Snow |
|---|---|---|---|---|---|---|---|
| 1777717324 | 15.56° C | 41% | 1013.3 hPa | 0 mm | - | 0 W/m² | - |
| 1777717022 | 15.56° C | 44% | 1013.4 hPa | 0 mm | - | 0 W/m² | - |
| 1777716720 | 15.56° C | 46% | 1013.4 hPa | 0 mm | - | 0 W/m² | - |
| 1777716418 | 15.56° C | 47% | 1013.5 hPa | 0 mm | - | 0 W/m² | - |
| 1777716116 | 15.56° C | 48% | 1013.5 hPa | 0 mm | - | 0 W/m² | - |
| 1777715814 | 15.56° C | 47% | 1013.7 hPa | 0 mm | - | 0 W/m² | - |
| 1777715511 | 15.56° C | 46% | 1013.4 hPa | 0 mm | - | 0 W/m² | - |
| 1777715208 | 16.11° C | 43% | 1013.7 hPa | 0 mm | - | 0 W/m² | - |
| 1777714907 | 16.11° C | 42% | 1013.5 hPa | 0 mm | - | 0 W/m² | - |
| 1777714604 | 16.11° C | 39% | 1013.5 hPa | 0 mm | - | 0 W/m² | - |
| 1777714302 | 16.11° C | 37% | 1013.4 hPa | 0 mm | - | 0 W/m² | - |
| 1777713999 | 15.56° C | 37% | 1013.4 hPa | 0 mm | - | 0 W/m² | - |
| 1777713697 | 15.56° C | 39% | 1013.5 hPa | 0 mm | - | 0 W/m² | - |
| 1777713393 | 15° C | 41% | 1013.5 hPa | 0 mm | - | 0 W/m² | - |
| 1777713090 | 15° C | 42% | 1013.3 hPa | 0 mm | - | 0 W/m² | - |
| 1777712787 | 15.56° C | 42% | 1013.3 hPa | 0 mm | - | 0 W/m² | - |
| 1777712484 | 15.56° C | 38% | 1013.3 hPa | 0 mm | - | 0 W/m² | - |
| 1777712180 | 16.11° C | 35% | 1013.3 hPa | 0 mm | - | 0 W/m² | - |
| 1777711877 | 16.11° C | 33% | 1013.5 hPa | 0 mm | - | 0 W/m² | - |
| 1777711575 | 16.11° C | 33% | 1013.5 hPa | 0 mm | - | 0 W/m² | - |
| 1777711269 | 16.11° C | 33% | 1013.4 hPa | 0 mm | - | 0 W/m² | - |
| 1777710966 | 16.11° C | 33% | 1013.5 hPa | 0 mm | - | 0 W/m² | - |
| 1777710663 | 16.67° C | 32% | 1013.8 hPa | 0 mm | - | 0 W/m² | - |
| 1777710361 | 16.67° C | 33% | 1013.9 hPa | 0 mm | - | 0 W/m² | - |
| 1777710057 | 16.11° C | 33% | 1013.7 hPa | 0 mm | - | 0 W/m² | - |
* Rain latest hour (hover to see other rain measurements)
** Current wind speed in m/s (hover to see current wind gust speed)